Tracking 30102 objects as of 12-Dec-2024
HD Live streaming from Space Station
objects crossing your sky now

STARLINK-32346

Track STARLINK-32346 now!
10-day predictions
STARLINK-32346 is classified as:


NORAD ID: 61849
Int'l Code: 2024-202E
Perigee: 450.0 km
Apogee: 452.4 km
Inclination: 43.0 °
Period: 93.5 minutes
Semi major axis: 6822 km
RCS: Unknown
Launch date: November 7, 2024
Source: United States (US)
Launch site: AIR FORCE EASTERN TEST RANGE (AFETR)
Your satellite tracking list
Your tracking list is empty




NASA's NSSDC Master Catalog

Two Line Element Set (TLE):
1 61849U 24202E   24347.14057067  .00004126  00000-0  10603-3 0  9994
2 61849  42.9989 284.3560 0001779 292.9412  67.1257 15.40689005  6486
Source of the keplerian elements: AFSPC